Date,TemperatureHighF,TemperatureAvgF,TemperatureLowF,DewpointHighF,DewpointAvgF,DewpointLowF,HumidityHigh,HumidityAvg,HumidityLow,PressureMaxIn,PressureMinIn,WindSpeedMaxMPH,WindSpeedAvgMPH,GustSpeedMaxMPH,PrecipitationSumIn
2013-9-1,75,63,52,65,57,51,98,82,57,30.10,30.01,9,3,12,0.00
2013-9-2,75,64,56,64,58,53,95,82,61,30.15,30.07,8,3,13,0.00
2013-9-3,70,63,58,65,60,55,97,91,80,30.25,30.15,7,2,9,0.18
2013-9-4,70,62,56,63,60,55,98,91,78,30.27,30.23,9,3,13,0.01
2013-9-5,66,60,55,62,58,54,98,93,81,30.26,30.13,12,4,19,0.17
2013-9-6,67,63,60,64,62,58,98,95,89,30.31,30.16,13,5,14,0.32
2013-9-7,72,65,59,62,61,57,96,87,70,30.32,30.23,12,3,15,0.00
2013-9-8,75,62,54,66,59,53,98,90,66,30.33,30.24,8,3,11,0.00
2013-9-9,73,62,56,65,59,55,99,90,68,30.29,30.20,9,3,12,0.00
2013-9-10,75,62,53,64,58,52,99,87,65,30.23,30.11,10,4,13,0.01
2013-9-11,84,68,56,65,60,55,98,78,51,30.17,30.09,10,3,11,0.00
2013-9-12,74,62,54,66,58,52,96,87,65,30.21,30.12,8,2,10,0.00
2013-9-13,63,60,56,61,59,55,98,96,91,30.18,30.09,7,3,10,0.00
2013-9-14,67,60,56,61,58,55,98,93,82,30.10,29.96,8,3,10,0.00
2013-9-15,62,58,54,61,58,54,98,97,93,30.02,29.93,8,3,9,0.21
2013-9-16,63,60,56,61,58,53,98,92,82,30.14,30.01,19,7,22,0.05
2013-9-17,61,58,54,56,54,53,97,88,78,30.15,30.08,9,3,17,0.01
2013-9-18,63,58,52,58,54,50,95,87,77,30.29,30.15,11,4,13,0.07
2013-9-19,71,60,51,58,53,49,95,79,51,30.27,29.96,9,3,12,0.00
2013-9-20,70,61,52,60,54,49,97,80,61,29.96,29.79,16,6,19,0.07
2013-9-21,66,59,55,58,56,54,97,88,68,29.93,29.85,14,3,15,0.01
2013-9-22,60,59,57,57,55,52,92,87,75,29.92,29.76,34,18,40,0.04
2013-9-23,59,56,53,55,53,48,92,86,69,30.18,29.92,19,9,24,0.01
2013-9-24,60,54,50,53,50,48,95,88,72,30.18,30.05,12,5,15,0.21
2013-9-25,59,52,46,52,49,44,97,88,69,30.24,30.08,13,3,16,0.00
2013-9-26,59,50,40,53,47,40,98,91,74,30.34,30.24,8,2,9,0.01
2013-9-27,56,53,49,54,51,47,97,92,87,30.33,30.04,25,12,28,0.06
2013-9-28,60,56,50,58,54,49,95,92,86,30.04,29.50,39,18,41,0.87
2013-9-29,56,55,53,53,51,49,95,87,78,29.72,29.35,33,24,43,0.23
2013-9-30,56,53,50,52,50,47,92,88,82,30.11,29.59,28,14,33,0.06